Regional Weather Roundup
Issued by NWS New Orleans/Baton Rouge, LA

Home | Current Version | Previous Version | Text Only | Print | Product List | Glossary On
Versions: 1 2 3 4 5 6 7 8 9 10 11 12 13 14 15 16 17 18 19 20 21 22 23 24 25 26 27 28 29 30 31 32 33 34 35 36 37 38 39 40 41 42 43 44 45 46 47 48 49 50
000
ASUS44 KLIX 031006
RWRLIX
NEW ORLEANS REGIONAL WEATHER ROUNDUP
NATIONAL WEATHER SERVICE NEW ORLEANS LA
500 AM CDT TUE AUG 03 2021

NOTE: "FAIR" INDICATES FEW OR NO CLOUDS BELOW 12,000 FEET WITH NO
      SIGNIFICANT WEATHER AND/OR OBSTRUCTIONS TO VISIBILITY.
      SKY/WX - SKY CONDITION AND SIGNIFICANT WEATHER.
      TMP - AIR TEMPERATURE.     DP    - DEWPOINT TEMPERATURE.
      RH  - RELATIVE HUMIDITY.   PRES  - PRESSURE.
      HI  - HEAT INDEX.          WCI   - WIND CHILL INDEX.

*  THESE STATIONS ARE NOT NWS OR FAA STATIONS AND ARE NOT UNDER
   NWS QUALITY CONTROL.

LAZ038-048-061-063-065>067-069-076-077-031100-
SOUTHEAST LOUISIANA

CITY           SKY/WX    TMP DP  RH WIND       PRES   REMARKS
N.O. INTL ARPT MOCLDY    79  75  87 W6        29.94R
N.O. DWNTWN HE PTSUNNY   80  76  87 MISG      29.95R
N.O. LAKEFRONT LGT RAIN  81  75  82 SW6       29.93F
RESERVE*       FAIR      75  74  98 CALM      29.94S
SLIDELL        CLOUDY    76  74  93 CALM      29.92S
BATON ROUGE    MOCLDY    75  75 100 CALM      29.93S
BOOTHVILLE*    NOT AVBL
BELLE CHASSE*  CLOUDY    78  78 100 CALM      29.93R
BOGALUSA*      CLOUDY    76  73  90 N3        29.95R
GALLIANO*      CLOUDY    79  74  85 NW3       29.93F
NEW ROADS*     PTSUNNY   75  75 100 CALM      29.94S FOG
GONZALES*      FAIR      76  75  98 CALM      29.93S
HAMMOND*       CLOUDY    75  75 100 CALM      29.95R FOG
HOUMA*         NOT AVBL

$$

MSZ070-077-080>082-031100-
SOUTHERN MISSISSIPPI

CITY           SKY/WX    TMP DP  RH WIND       PRES   REMARKS
MCCOMB         CLOUDY    74  74 100 CALM      29.95S FOG
PICAYUNE*        N/A     73  72  94 CALM        N/A
GULFPORT       CLOUDY    75  74  96 CALM      29.92R
BILOXI         CLOUDY    75  74  98 CALM      29.92R
PASCAGOULA     CLOUDY    75  74  96 CALM      29.92S

$$

COASTAL OBSERVATIONS
LAKE AND NEARSHORE STATIONS

STATION/POSITION TIME  SKY/WX   TEMP    WIND        PRES    WAVE
                                AIR SEA DIR/SP/G            HT/PER
                 (UTC)          (F)     (DEG/KT/KT) (MB)    (FT/S)
WAVELAND YACHT   0930            82 87  340/  2/  4   N/A
GRAND ISLE       0930            83 89              1013.4
SOUTHWEST PASS   0930            81 84  220/  5/  7 1011.9
NEW CANAL        0930            80 88  140/  2/  5 1012.9
SHELL BEACH      0930            80 89   CALM  /  2 1013.7

OFFSHORE STATIONS

STATION/POSITION TIME  SKY/WX   TEMP    WIND        PRES    WAVE
                                AIR SEA DIR/SP/G            HT/PER
                 (UTC)          (F)     (DEG/KT/KT) (MB)    (FT/S)
64 S DAUPHIN ISL 0950            76 85   20/ 10/ 17 1014.6    2/ 5
SW PASS ENTRANCE 0930               87                N/A     2/ 4
LA OFFSHORE OIL  0909            84                 1014.1

$$




USA.gov is the U.S. government's official web portal to all federal, state and local government web resources and services.